DAL381 KDTW-KLAX

Flight info

Callsign DAL381
Flight time N/A
Altitude 40000
Route KAYLN3 SMUUV OBK DSM LNK J60 DVV ZAKRY Q88 HAKMN ANJLL4
Aircraft A359/H-SDE2E3GHIJ3J4J5LM1ORWXY/LB1D1

Departure

Time N/A
Airport Detroit Metropolitan Wayne County Airport (KDTW)

Arrival

Time 2026-05-08 01:17
Airport Los Angeles International Airport (KLAX)
Time Latitude Longitude Altitude Speed Heading
2026-05-08 00:50 34.99306 -115.74659 39918 ft 484 kts 228°
2026-05-08 00:50 34.94651 -115.80589 39911 ft 483 kts 228°
2026-05-08 00:51 34.90013 -115.86486 39398 ft 480 kts 228°
2026-05-08 00:51 34.87684 -115.89447 38488 ft 488 kts 227°
2026-05-08 00:51 34.85350 -115.92408 37655 ft 492 kts 227°
2026-05-08 00:51 34.82976 -115.95416 36969 ft 493 kts 227°
2026-05-08 00:52 34.80597 -115.98427 36301 ft 493 kts 227°
2026-05-08 00:52 34.78218 -116.01437 35611 ft 494 kts 227°
2026-05-08 00:52 34.75826 -116.04468 34902 ft 496 kts 227°
2026-05-08 00:52 34.73441 -116.07497 34356 ft 494 kts 227°
2026-05-08 00:53 34.71072 -116.10503 33815 ft 492 kts 227°
2026-05-08 00:53 34.68718 -116.13489 33235 ft 489 kts 227°
2026-05-08 00:53 34.66378 -116.16460 32694 ft 486 kts 227°
2026-05-08 00:53 34.64049 -116.19416 32177 ft 482 kts 227°
2026-05-08 00:54 34.61738 -116.22349 31659 ft 479 kts 227°
2026-05-08 00:54 34.59446 -116.25255 31147 ft 475 kts 227°
2026-05-08 00:54 34.57165 -116.28145 30635 ft 472 kts 227°
2026-05-08 00:54 34.54927 -116.30979 30134 ft 470 kts 227°
2026-05-08 00:55 34.52668 -116.33835 29565 ft 467 kts 227°
2026-05-08 00:55 34.50429 -116.36665 29043 ft 463 kts 227°
2026-05-08 00:55 34.48203 -116.39476 28514 ft 459 kts 227°
2026-05-08 00:55 34.46005 -116.42250 28006 ft 455 kts 227°
2026-05-08 00:56 34.43823 -116.45004 27493 ft 452 kts 227°
2026-05-08 00:56 34.41816 -116.47896 26971 ft 447 kts 236°
2026-05-08 00:56 34.40237 -116.51111 26465 ft 442 kts 244°
2026-05-08 00:56 34.38854 -116.54412 25952 ft 439 kts 245°
2026-05-08 00:57 34.37506 -116.57715 25432 ft 436 kts 245°
2026-05-08 00:57 34.36163 -116.60999 24915 ft 434 kts 245°
2026-05-08 00:57 34.34831 -116.64249 24552 ft 428 kts 245°
2026-05-08 00:57 34.33502 -116.67477 24009 ft 428 kts 245°
2026-05-08 00:58 34.32260 -116.70530 23535 ft 427 kts 246°
2026-05-08 00:58 34.30918 -116.73887 22924 ft 425 kts 246°
2026-05-08 00:58 34.29652 -116.77067 22405 ft 421 kts 246°
2026-05-08 00:58 34.28389 -116.80232 21896 ft 417 kts 246°
2026-05-08 00:59 34.27135 -116.83363 21394 ft 414 kts 246°
2026-05-08 00:59 34.25898 -116.86444 20884 ft 410 kts 246°
2026-05-08 00:59 34.24652 -116.89533 20387 ft 408 kts 245°
2026-05-08 00:59 34.23414 -116.92598 19890 ft 405 kts 245°
2026-05-08 01:00 34.22184 -116.95641 19389 ft 397 kts 245°
2026-05-08 01:00 34.21050 -116.98652 18864 ft 392 kts 250°
2026-05-08 01:00 34.20147 -117.01743 18527 ft 388 kts 253°
2026-05-08 01:00 34.19313 -117.04842 18154 ft 388 kts 254°
2026-05-08 01:01 34.18487 -117.07937 17783 ft 386 kts 254°
2026-05-08 01:01 34.17669 -117.11008 17406 ft 382 kts 253°
2026-05-08 01:01 34.16853 -117.14053 17079 ft 380 kts 253°
2026-05-08 01:01 34.16042 -117.17058 16838 ft 379 kts 253°
2026-05-08 01:02 34.15220 -117.20059 16527 ft 372 kts 253°
2026-05-08 01:02 34.14428 -117.22943 16321 ft 360 kts 253°
2026-05-08 01:02 34.13651 -117.25765 16115 ft 350 kts 253°
2026-05-08 01:02 34.12893 -117.28528 15806 ft 343 kts 253°
2026-05-08 01:03 34.12152 -117.31236 15437 ft 340 kts 253°
2026-05-08 01:03 34.11409 -117.33940 15033 ft 337 kts 253°
2026-05-08 01:03 34.10673 -117.36611 14642 ft 335 kts 253°
2026-05-08 01:03 34.09961 -117.39281 14245 ft 332 kts 254°
2026-05-08 01:04 34.09307 -117.41877 13634 ft 323 kts 254°
2026-05-08 01:04 34.08653 -117.44464 12799 ft 318 kts 254°
2026-05-08 01:04 34.08001 -117.47033 12383 ft 319 kts 254°
2026-05-08 01:04 34.07380 -117.49591 11962 ft 316 kts 258°
2026-05-08 01:05 34.06935 -117.52162 11616 ft 311 kts 261°
2026-05-08 01:05 34.06559 -117.54705 11285 ft 306 kts 262°
2026-05-08 01:05 34.06196 -117.57208 10942 ft 302 kts 262°
2026-05-08 01:05 34.05836 -117.59684 10607 ft 299 kts 262°
2026-05-08 01:06 34.05482 -117.62131 10272 ft 296 kts 262°
2026-05-08 01:06 34.05128 -117.64553 9946 ft 293 kts 263°
2026-05-08 01:06 34.04788 -117.66950 9592 ft 289 kts 262°
2026-05-08 01:06 34.04435 -117.69338 9268 ft 286 kts 262°
2026-05-08 01:07 34.04085 -117.71689 8960 ft 284 kts 262°
2026-05-08 01:07 34.03736 -117.74017 8639 ft 281 kts 262°
2026-05-08 01:07 34.03389 -117.76328 8324 ft 279 kts 262°
2026-05-08 01:07 34.03059 -117.78556 8024 ft 277 kts 262°
2026-05-08 01:08 34.02713 -117.80866 7702 ft 275 kts 261°
2026-05-08 01:08 34.02368 -117.83160 7390 ft 273 kts 262°
2026-05-08 01:08 34.02052 -117.85379 7086 ft 271 kts 262°
2026-05-08 01:08 34.01738 -117.87608 6785 ft 269 kts 262°
2026-05-08 01:09 34.01418 -117.89822 6475 ft 267 kts 262°
2026-05-08 01:09 34.01093 -117.92030 6156 ft 266 kts 261°
2026-05-08 01:09 34.00768 -117.94217 5853 ft 264 kts 261°
2026-05-08 01:09 34.00449 -117.96352 5551 ft 263 kts 261°
2026-05-08 01:10 34.00124 -117.98511 5310 ft 257 kts 261°
2026-05-08 01:10 33.99811 -118.00518 5123 ft 247 kts 261°
2026-05-08 01:10 33.99502 -118.02565 4932 ft 238 kts 261°
2026-05-08 01:10 33.99201 -118.04509 4695 ft 234 kts 260°
2026-05-08 01:11 33.98895 -118.06429 4374 ft 233 kts 260°
2026-05-08 01:11 33.98593 -118.08329 4043 ft 231 kts 260°
2026-05-08 01:11 33.98298 -118.10227 3771 ft 228 kts 260°
2026-05-08 01:11 33.98019 -118.12037 3625 ft 213 kts 261°
2026-05-08 01:12 33.97807 -118.13744 3499 ft 202 kts 264°
2026-05-08 01:12 33.97689 -118.15439 3381 ft 203 kts 266°
2026-05-08 01:12 33.97553 -118.17134 3251 ft 202 kts 265°
2026-05-08 01:12 33.97389 -118.18762 3140 ft 189 kts 265°
2026-05-08 01:13 33.97235 -118.20270 3039 ft 182 kts 264°
2026-05-08 01:13 33.97080 -118.21793 2866 ft 181 kts 264°
2026-05-08 01:13 33.96928 -118.23290 2694 ft 181 kts 264°
2026-05-08 01:13 33.96786 -118.24742 2513 ft 165 kts 264°
2026-05-08 01:14 33.96660 -118.26025 2353 ft 151 kts 264°
2026-05-08 01:14 33.96532 -118.27275 2217 ft 149 kts 264°
2026-05-08 01:14 33.96402 -118.28526 2045 ft 148 kts 263°
2026-05-08 01:14 33.96279 -118.29717 1847 ft 140 kts 263°
2026-05-08 01:15 33.96162 -118.30855 1669 ft 136 kts 263°
2026-05-08 01:15 33.96051 -118.31945 1486 ft 131 kts 263°
2026-05-08 01:15 33.95944 -118.33001 1323 ft 130 kts 263°
2026-05-08 01:15 33.95831 -118.34102 1148 ft 129 kts 263°
2026-05-08 01:16 33.95721 -118.35175 983 ft 128 kts 263°
2026-05-08 01:16 33.95616 -118.36225 815 ft 124 kts 262°
2026-05-08 01:16 33.95510 -118.37246 648 ft 122 kts 262°
2026-05-08 01:16 33.95409 -118.38274 517 ft 126 kts 262°
2026-05-08 01:17 33.95304 -118.39328 306 ft 126 kts 261°
2026-05-08 01:17 33.95196 -118.40352 148 ft 124 kts 260°
2026-05-08 01:17 33.95101 -118.41255 129 ft 77 kts 263°
2026-05-08 01:17 33.95057 -118.41705 130 ft 48 kts 263°
2026-05-08 01:18 33.95018 -118.42076 124 ft 42 kts 263°
2026-05-08 01:18 33.94993 -118.42300 132 ft 40 kts 261°
2026-05-08 01:18 33.94920 -118.42574 128 ft 26 kts 239°
2026-05-08 01:18 33.94866 -118.42662 128 ft 0 kts 227°
2026-05-08 01:19 33.94859 -118.42670 127 ft 0 kts 226°
2026-05-08 01:20 33.94856 -118.42674 126 ft 0 kts 225°
2026-05-08 01:21 33.94854 -118.42676 126 ft 5 kts 225°
2026-05-08 01:21 33.94755 -118.42760 129 ft 20 kts 204°
2026-05-08 01:21 33.94651 -118.42749 128 ft 14 kts 129°
2026-05-08 01:22 33.94643 -118.42623 132 ft 17 kts 84°
2026-05-08 01:22 33.94659 -118.42460 129 ft 21 kts 83°
2026-05-08 01:22 33.94677 -118.42275 128 ft 25 kts 83°
2026-05-08 01:22 33.94700 -118.42058 127 ft 24 kts 82°
2026-05-08 01:23 33.94715 -118.41881 124 ft 14 kts 99°
2026-05-08 01:23 33.94666 -118.41826 127 ft 17 kts 161°
2026-05-08 01:23 33.94557 -118.41770 127 ft 18 kts 122°